Location: Pandora
(40.9481°N, 83.9611°W)
Time: 12:40:10
(UTC-04:00)

Nauka - Pass Details

Date: 20 September 2021
Orbit: 417 x 423 km, 51.6° (Epoch: 24 October)

Event Time Altitude Azimuth Distance (km) Brightness Sun altitude
Rises 20:59:11 0° 267° (W) 2,356 ? -16.4°
Reaches altitude 10° 21:01:33 10° 283° (WNW) 1,496 ? -16.8°
Maximum altitude 21:04:20 23° 338° (NNW) 932 ? -17.3°
Enters shadow 21:06:46 12° 30° (NNE) 1,390 ? -17.7°
